User: anonymous   Login
Location: Stoke Bliss
(52.2667°N, 2.5167°W)
Time: 23:29:14
(UTC+00:00)
Language:

Cosmos 1666 - Orbit

View from above orbital plane
View from above orbital plane
View from above satellite
View from above satellite

Ground track
Ground track

The orbit data is extracted from the following two-line orbital elements,

1 15889U 85058A   21129.41353209  .00000519  00000-0  22793-4 0  9991
2 15889  82.4902  22.7751 0017452 147.8014 212.4290 15.19450375957704
Epoch (UTC): 09 May 2021 09:55:29
Eccentricity: 0.0017452
inclination: 82.4902°
perigee height: 495 km
apogee height: 519 km
right ascension of ascending node: 22.7751°
argument of perigee: 147.8014°
revolutions per day: 15.19450375
mean anomaly at epoch: 212.4290°
orbit number at epoch: 95770

The dashed part of the orbit path shows where the satellite is in the earth's shadow,  

DLR